Location: Newark
(39.9288°N, 0.1974°W)
Time: 10:40:10
(UTC+00:00)

Starlink Launch 2 trailer - Visible Passes

Search period start: 12 December 2019 00:00
Search period end: 22 December 2019 00:00
Orbit: 279 x 281 km, 53.0° (Epoch: 13 November)

Date Brightness Start Highest point End Pass type
(mag) Time Alt. Az. Time Alt. Az. Time Alt. Az.
12 Dec 4.6 05:30:25 18° S 05:30:25 18° S 05:31:18 10° SSE visible
19 Dec 5.7 18:43:46 10° SW 18:43:53 11° SW 18:43:53 11° SW visible
20 Dec 5.5 18:45:39 10° WSW 18:46:12 15° WSW 18:46:12 15° WSW visible
21 Dec 4.5 17:15:07 10° SSE 17:16:36 15° SE 17:18:05 10° E visible
21 Dec 5.6 18:47:50 10° W 18:48:26 15° W 18:48:26 15° W visible
